Terug naar catalogus

ARIANE 1 R/B

ActiefHEO
NORAD 15876·ROCKET BODY·🇫🇷 France

Gelanceerd Jul 2, 1985 vanaf Guiana Space Centre

Loading…

Volgende Passages (komende 24 uur)

TLE

VersSource: Space-Track

Epoch: Sep 14, 2026, 03:19 UTC

1 15876U 85056B   26257.13856459  .00000259  00000-0  10872-2 0  9990
2 15876   9.0337  59.1589 6180232 289.0328  16.3312  3.58810644188891

Volg ARIANE 1 R/B in realtime met AllMySat

Download on the App Store